Weather in Abasha

Georgia     42°12′28″N   42°12′02″E
temp.,
°C
wind,
m/s
gust,
m/s
humid.,
%
clouds,
%
prec.,
mm/h
press.,
hPa
HPBL,
m
1 march, mon
mon101:00+6wsw71188100 4.0 1022904
04:00+6wsw4884100 5.1 1023619
07:00+5sw3488100 0.1 1025149
10:00+7sw458195 0.5 1025437
13:00+9w456931 1.0 1025957
16:00+9w566835 2.3 10251003
19:00+7wsw378173 0.4 1027264
22:00+5wsw249081 0.6 1029153
2 march, tue
tue201:00+4wsw119060 0.1 103022
04:00+4e128877 0.1 103130
07:00+4ene2384100 0.0 103169
10:00+6e346497 0.0 1030258
13:00+9ene11567 0.0 1028894
16:00+11wnw22473 0.0 10271364
19:00+7w47750 0.1 1028282
22:00+5wsw22860 0.1 102956
3 march, wed
wed301:00+4wsw11878 0.0 102922
04:00+3ne11905 0.0 102823
07:00+3ne009041 0.0 102724
10:00+5nw118166 0.0 1026184
13:00+8w4571100 0.8 1024989
16:00+9w796196 1.7 10221432
19:00+6w597750 0.6 1024696
22:00+6wnw478775 2.1 1027660
4 march, thu
thu401:00+5wnw3785100 0.8 1028770
04:00+5nnw2391100 1.4 1029262
07:00+4wsw1592100 1.9 1029466
10:00+4e3493100 5.3 1028253
13:00+6e4585100 0.2 1026330
16:00+9ne227074 0.3 1024785
19:00+7ne227759 0.0 102530
22:00+5ne228430 0.0 102626
5 march, fri
fri501:00+3ene11820 0.0 102422
04:00+3e12770 0.0 102323
07:00+2ene22740 0.0 102328
10:00+5e34620 0.0 1023247
13:00+9e22550 0.0 1021654
16:00+12wnw12460 0.0 10211008
19:00+9ene11560 0.0 102222
22:00+7e33670 0.0 102547